UKV7685 KMIA-CYUL

Flight info

Callsign UKV7685
Flight time 2h 54m
Altitude 36000
Route FOLZZ3 ALYRA DCT GRUBR/N0487F350 Y299 SEELO DCT WAALT Q131 EARZZ DCT JAMIE Q133 PBERG CARTR5
Aircraft B77L/H-SDE1E2E3FGHIJ2J3J4J5M1RWXY/LB1D1

Departure

Time 2026-05-06 19:05
Airport Miami International Airport (KMIA)

Arrival

Time 2026-05-06 22:00
Airport Montreal / Pierre Elliott Trudeau International Airport (CYUL)
Time Latitude Longitude Altitude Speed Heading
2026-05-06 18:45 25.79202 -80.29322 20 ft 0 kts 210°
2026-05-06 18:56 25.79210 -80.29317 19 ft 4 kts 210°
2026-05-06 18:56 25.79229 -80.29305 23 ft 3 kts 210°
2026-05-06 18:57 25.79247 -80.29288 24 ft 4 kts 262°
2026-05-06 18:57 25.79241 -80.29265 23 ft 4 kts 300°
2026-05-06 18:57 25.79231 -80.29246 23 ft 0 kts 300°
2026-05-06 19:00 25.79232 -80.29247 19 ft 0 kts 300°
2026-05-06 19:00 25.79236 -80.29256 19 ft 3 kts 300°
2026-05-06 19:01 25.79255 -80.29290 19 ft 7 kts 301°
2026-05-06 19:01 25.79288 -80.29353 19 ft 11 kts 301°
2026-05-06 19:01 25.79338 -80.29440 20 ft 15 kts 306°
2026-05-06 19:01 25.79402 -80.29551 20 ft 19 kts 300°
2026-05-06 19:02 25.79470 -80.29685 20 ft 20 kts 300°
2026-05-06 19:02 25.79540 -80.29821 19 ft 20 kts 300°
2026-05-06 19:02 25.79610 -80.29957 19 ft 20 kts 300°
2026-05-06 19:02 25.79680 -80.30094 19 ft 20 kts 300°
2026-05-06 19:03 25.79745 -80.30222 19 ft 15 kts 299°
2026-05-06 19:03 25.79825 -80.30272 19 ft 15 kts 18°
2026-05-06 19:03 25.79919 -80.30219 19 ft 15 kts 31°
2026-05-06 19:03 25.79966 -80.30125 19 ft 9 kts 45°
2026-05-06 19:04 25.79997 -80.30122 19 ft 12 kts 357°
2026-05-06 19:04 25.80067 -80.30075 18 ft 13 kts 70°
2026-05-06 19:04 25.80078 -80.29967 17 ft 20 kts 87°
2026-05-06 19:04 25.80093 -80.29627 18 ft 78 kts 88°
2026-05-06 19:05 25.80128 -80.28765 25 ft 140 kts 88°
2026-05-06 19:05 25.80183 -80.27544 210 ft 167 kts 87°
2026-05-06 19:05 25.80278 -80.26258 902 ft 164 kts 87°
2026-05-06 19:05 25.80176 -80.24982 1371 ft 170 kts 111°
2026-05-06 19:06 25.79606 -80.23870 1887 ft 175 kts 121°
2026-05-06 19:06 25.78952 -80.22584 2111 ft 204 kts 117°
2026-05-06 19:06 25.78277 -80.21058 2614 ft 239 kts 109°
2026-05-06 19:06 25.77616 -80.19241 3383 ft 266 kts 118°
2026-05-06 19:07 25.76765 -80.17403 4342 ft 268 kts 118°
2026-05-06 19:07 25.75832 -80.15625 5260 ft 271 kts 123°
2026-05-06 19:07 25.74793 -80.13866 6120 ft 274 kts 124°
2026-05-06 19:07 25.73969 -80.11957 6689 ft 281 kts 99°
2026-05-06 19:08 25.74163 -80.09815 7359 ft 282 kts 64°
2026-05-06 19:08 25.75346 -80.08131 8130 ft 277 kts 42°
2026-05-06 19:08 25.76734 -80.06612 8766 ft 284 kts 45°
2026-05-06 19:08 25.78091 -80.05003 9543 ft 286 kts 46°
2026-05-06 19:09 25.79434 -80.03365 10313 ft 288 kts 46°
2026-05-06 19:09 25.80811 -80.01665 10679 ft 308 kts 46°
2026-05-06 19:09 25.82294 -79.99818 10865 ft 333 kts 47°
2026-05-06 19:09 25.83887 -79.97821 11052 ft 358 kts 47°
2026-05-06 19:10 25.85562 -79.95708 11554 ft 370 kts 47°
2026-05-06 19:10 25.87274 -79.93536 12284 ft 376 kts 47°
2026-05-06 19:10 25.88999 -79.91343 13209 ft 378 kts 47°
2026-05-06 19:10 25.90732 -79.89136 14111 ft 380 kts 47°
2026-05-06 19:11 25.92478 -79.86912 14849 ft 384 kts 46°
2026-05-06 19:11 25.94248 -79.84658 15483 ft 391 kts 46°
2026-05-06 19:11 25.96048 -79.82365 16138 ft 397 kts 46°
2026-05-06 19:11 25.97872 -79.80039 16811 ft 401 kts 46°
2026-05-06 19:12 25.99714 -79.77689 17475 ft 406 kts 45°
2026-05-06 19:12 26.01580 -79.75307 18123 ft 411 kts 45°
2026-05-06 19:12 26.03469 -79.72895 18709 ft 416 kts 45°
2026-05-06 19:12 26.05376 -79.70457 19262 ft 420 kts 45°
2026-05-06 19:13 26.07306 -79.67989 19819 ft 424 kts 45°
2026-05-06 19:13 26.09250 -79.65501 20366 ft 429 kts 45°
2026-05-06 19:13 26.11176 -79.63008 20895 ft 434 kts 47°
2026-05-06 19:13 26.13005 -79.60312 21420 ft 440 kts 51°
2026-05-06 19:14 26.14756 -79.57494 21942 ft 445 kts 52°
2026-05-06 19:14 26.16498 -79.54632 22462 ft 449 kts 52°
2026-05-06 19:14 26.18270 -79.51749 22974 ft 453 kts 51°
2026-05-06 19:14 26.20079 -79.48849 23412 ft 459 kts 51°
2026-05-06 19:15 26.21921 -79.45930 23847 ft 463 kts 51°
2026-05-06 19:15 26.23786 -79.42987 24288 ft 466 kts 51°
2026-05-06 19:15 26.25658 -79.40035 24751 ft 468 kts 51°
2026-05-06 19:15 26.27539 -79.37065 25197 ft 470 kts 50°
2026-05-06 19:16 26.29616 -79.34268 25531 ft 467 kts 38°
2026-05-06 19:16 26.32240 -79.32206 25826 ft 461 kts 27°
2026-05-06 19:16 26.35006 -79.30358 26174 ft 466 kts 27°
2026-05-06 19:16 26.37790 -79.28479 26610 ft 469 kts 27°
2026-05-06 19:17 26.40573 -79.26566 27076 ft 471 kts 27°
2026-05-06 19:17 26.43360 -79.24617 27502 ft 474 kts 28°
2026-05-06 19:17 26.46154 -79.22641 27934 ft 477 kts 28°
2026-05-06 19:17 26.48964 -79.20640 28294 ft 481 kts 28°
2026-05-06 19:18 26.51797 -79.18615 28660 ft 485 kts 28°
2026-05-06 19:18 26.54643 -79.16577 29052 ft 488 kts 28°
2026-05-06 19:18 26.57507 -79.14526 29442 ft 490 kts 28°
2026-05-06 19:18 26.60384 -79.12465 29818 ft 492 kts 27°
2026-05-06 19:19 26.63274 -79.10395 30191 ft 494 kts 27°
2026-05-06 19:19 26.66165 -79.08322 30611 ft 494 kts 27°
2026-05-06 19:19 26.69016 -79.06277 31094 ft 492 kts 27°
2026-05-06 19:19 26.71882 -79.04219 31691 ft 487 kts 27°
2026-05-06 19:20 26.74721 -79.02178 32272 ft 484 kts 27°
2026-05-06 19:20 26.77558 -79.00142 32641 ft 485 kts 27°
2026-05-06 19:20 26.80402 -78.98102 32981 ft 486 kts 27°
2026-05-06 19:20 26.83247 -78.96058 33403 ft 486 kts 27°
2026-05-06 19:21 26.86089 -78.94015 33847 ft 484 kts 26°
2026-05-06 19:21 26.88921 -78.91976 34257 ft 483 kts 26°
2026-05-06 19:21 26.91744 -78.89942 34608 ft 482 kts 26°
2026-05-06 19:21 26.94567 -78.87908 34941 ft 482 kts 26°
2026-05-06 19:22 26.97401 -78.85867 35030 ft 487 kts 26°
2026-05-06 19:22 27.03101 -78.81754 35087 ft 485 kts 26°
2026-05-06 19:23 27.08756 -78.77665 35085 ft 483 kts 26°
2026-05-06 19:23 27.14397 -78.73584 35096 ft 482 kts 26°
2026-05-06 19:24 27.20040 -78.69497 35088 ft 483 kts 26°
2026-05-06 19:24 27.25680 -78.65407 35099 ft 482 kts 26°
2026-05-06 19:24 27.28572 -78.63588 35072 ft 471 kts 15°
2026-05-06 19:25 27.31670 -78.62697 35089 ft 452 kts 360°
2026-05-06 19:25 27.37925 -78.62080 35092 ft 453 kts
2026-05-06 19:26 27.44209 -78.61313 35095 ft 456 kts
2026-05-06 19:26 27.49459 -78.60631 35098 ft 458 kts
2026-05-06 19:27 27.55803 -78.59799 35092 ft 460 kts
2026-05-06 19:27 27.62163 -78.58968 35105 ft 461 kts
2026-05-06 19:28 27.68540 -78.58137 35086 ft 461 kts
2026-05-06 19:28 27.74915 -78.57307 35090 ft 461 kts
2026-05-06 19:29 27.81274 -78.56477 35104 ft 459 kts
2026-05-06 19:29 27.87618 -78.55649 35090 ft 458 kts
2026-05-06 19:30 27.93948 -78.54822 35096 ft 458 kts
2026-05-06 19:30 28.00272 -78.53995 35094 ft 457 kts
2026-05-06 19:31 28.06579 -78.53169 35094 ft 456 kts
2026-05-06 19:31 28.16040 -78.51928 35095 ft 456 kts
2026-05-06 19:32 28.22344 -78.51100 35102 ft 456 kts
2026-05-06 19:32 28.28649 -78.50271 35095 ft 456 kts
2026-05-06 19:33 28.34957 -78.49440 35093 ft 456 kts
2026-05-06 19:33 28.41260 -78.48609 35093 ft 456 kts
2026-05-06 19:34 28.47568 -78.47776 35113 ft 456 kts
2026-05-06 19:34 28.53836 -78.46948 35099 ft 456 kts
2026-05-06 19:35 28.60141 -78.46114 35094 ft 456 kts
2026-05-06 19:35 28.66450 -78.45278 35096 ft 456 kts
2026-05-06 19:36 28.72755 -78.44442 35094 ft 456 kts
2026-05-06 19:36 28.79058 -78.43605 35102 ft 456 kts 360°
2026-05-06 19:37 28.85364 -78.42767 35095 ft 456 kts 360°
2026-05-06 19:37 28.91663 -78.41928 35095 ft 456 kts 360°
2026-05-06 19:38 28.97965 -78.41088 35094 ft 456 kts 360°
2026-05-06 19:38 29.04263 -78.40247 35119 ft 456 kts 359°
2026-05-06 19:39 29.10561 -78.39406 35099 ft 456 kts 359°
2026-05-06 19:39 29.16862 -78.38563 35094 ft 456 kts 359°
2026-05-06 19:40 29.23119 -78.37725 35096 ft 456 kts 359°
2026-05-06 19:40 29.29413 -78.36881 35095 ft 456 kts 359°
2026-05-06 19:41 29.35708 -78.36035 35108 ft 456 kts 359°
2026-05-06 19:41 29.42007 -78.35188 35095 ft 456 kts 359°
2026-05-06 19:42 29.48290 -78.34474 35085 ft 448 kts 352°
2026-05-06 19:42 29.51311 -78.34981 35083 ft 431 kts 338°
2026-05-06 19:42 29.54163 -78.36017 35098 ft 430 kts 338°
2026-05-06 19:43 29.59934 -78.37980 35105 ft 434 kts 339°
2026-05-06 19:43 29.65769 -78.39877 35106 ft 437 kts 339°
2026-05-06 19:44 29.71639 -78.41775 35098 ft 439 kts 339°
2026-05-06 19:44 29.77517 -78.43683 35096 ft 439 kts 339°
2026-05-06 19:45 29.83400 -78.45598 35096 ft 439 kts 339°
2026-05-06 19:45 29.89269 -78.47512 35121 ft 438 kts 339°
2026-05-06 19:46 29.95129 -78.49425 35103 ft 437 kts 338°
2026-05-06 19:46 30.00923 -78.51320 35085 ft 435 kts 338°
2026-05-06 19:47 30.06768 -78.53233 35097 ft 433 kts 338°
2026-05-06 19:47 30.12641 -78.54853 35100 ft 439 kts 346°
2026-05-06 19:48 30.18779 -78.55259 35101 ft 446 kts 353°
2026-05-06 19:48 30.24979 -78.54548 35102 ft 453 kts 359°
2026-05-06 19:49 30.31230 -78.53571 35097 ft 453 kts 359°
2026-05-06 19:49 30.37486 -78.52648 35099 ft 453 kts 359°
2026-05-06 19:50 30.43740 -78.51741 35098 ft 454 kts 359°
2026-05-06 19:50 30.49998 -78.50741 35101 ft 455 kts 359°
2026-05-06 19:51 30.56261 -78.49710 35094 ft 454 kts 359°
2026-05-06 19:51 30.62517 -78.48687 35100 ft 454 kts 359°
2026-05-06 19:52 30.68774 -78.47670 35097 ft 454 kts 359°
2026-05-06 19:52 30.75020 -78.46656 35121 ft 453 kts 359°
2026-05-06 19:53 30.81271 -78.45641 35101 ft 453 kts 359°
2026-05-06 19:53 30.87513 -78.44625 35093 ft 452 kts 359°
2026-05-06 19:54 30.93740 -78.43610 35098 ft 452 kts 359°
2026-05-06 19:54 30.99961 -78.42595 35096 ft 451 kts 359°
2026-05-06 19:55 31.06185 -78.41579 35100 ft 452 kts 359°
2026-05-06 19:55 31.12406 -78.40561 35092 ft 451 kts 359°
2026-05-06 19:56 31.18629 -78.39542 35103 ft 451 kts 359°
2026-05-06 19:56 31.24847 -78.38522 35099 ft 451 kts 359°
2026-05-06 19:57 31.31072 -78.37500 35104 ft 452 kts 359°
2026-05-06 19:57 31.37299 -78.36476 35093 ft 452 kts 359°
2026-05-06 19:58 31.43522 -78.35451 35099 ft 452 kts 359°
2026-05-06 19:58 31.49747 -78.34424 35095 ft 452 kts 359°
2026-05-06 19:59 31.55971 -78.33396 35107 ft 452 kts 359°
2026-05-06 19:59 31.62204 -78.32366 35094 ft 452 kts 359°
2026-05-06 20:00 31.68434 -78.31334 35089 ft 452 kts 359°
2026-05-06 20:00 31.74660 -78.30301 35089 ft 452 kts 359°
2026-05-06 20:01 31.80882 -78.29268 35105 ft 452 kts 358°
2026-05-06 20:01 31.87107 -78.28233 35089 ft 452 kts 359°
2026-05-06 20:02 31.93295 -78.27203 35081 ft 452 kts 359°
2026-05-06 20:02 31.99519 -78.26165 35082 ft 452 kts 359°
2026-05-06 20:03 32.05745 -78.25056 35078 ft 454 kts
2026-05-06 20:03 32.11968 -78.23699 35084 ft 456 kts
2026-05-06 20:04 32.18193 -78.22305 35082 ft 455 kts
2026-05-06 20:04 32.24422 -78.20936 35081 ft 455 kts
2026-05-06 20:05 32.30647 -78.19587 35077 ft 455 kts
2026-05-06 20:05 32.36867 -78.18242 35085 ft 455 kts
2026-05-06 20:06 32.43096 -78.16894 35075 ft 455 kts
2026-05-06 20:06 32.49315 -78.15544 35071 ft 455 kts
2026-05-06 20:07 32.55542 -78.14191 35068 ft 455 kts
2026-05-06 20:07 32.61766 -78.12836 35077 ft 455 kts
2026-05-06 20:08 32.67997 -78.11477 35068 ft 456 kts
2026-05-06 20:08 32.74232 -78.10115 35062 ft 456 kts
2026-05-06 20:09 32.80471 -78.08751 35060 ft 456 kts
2026-05-06 20:09 32.86713 -78.07384 35060 ft 456 kts
2026-05-06 20:10 32.92959 -78.06015 35058 ft 456 kts
2026-05-06 20:10 32.99164 -78.04653 35057 ft 456 kts
2026-05-06 20:11 33.05406 -78.03280 35060 ft 456 kts
2026-05-06 20:11 33.11654 -78.01905 35086 ft 457 kts
2026-05-06 20:12 33.17801 -78.00551 35065 ft 459 kts
2026-05-06 20:12 33.24192 -77.99141 35059 ft 460 kts
2026-05-06 20:13 33.30493 -77.97747 35057 ft 461 kts
2026-05-06 20:13 33.36810 -77.96347 35070 ft 462 kts
2026-05-06 20:14 33.43128 -77.94946 35057 ft 462 kts
2026-05-06 20:14 33.49451 -77.93539 35044 ft 462 kts
2026-05-06 20:15 33.55766 -77.92134 35053 ft 461 kts
2026-05-06 20:15 33.62067 -77.90730 35070 ft 461 kts
2026-05-06 20:16 33.67310 -77.89560 35058 ft 461 kts
2026-05-06 20:16 33.73626 -77.88149 35050 ft 462 kts
2026-05-06 20:17 33.79951 -77.86731 35049 ft 463 kts
2026-05-06 20:17 33.86273 -77.85175 35046 ft 465 kts
2026-05-06 20:18 33.92605 -77.83550 35052 ft 466 kts
2026-05-06 20:18 33.98952 -77.81932 35044 ft 466 kts
2026-05-06 20:19 34.05307 -77.80323 35039 ft 467 kts
2026-05-06 20:19 34.11673 -77.78713 35038 ft 467 kts
2026-05-06 20:20 34.18042 -77.77100 35038 ft 468 kts
2026-05-06 20:20 34.24415 -77.75482 35033 ft 468 kts
2026-05-06 20:21 34.30788 -77.73862 35033 ft 468 kts
2026-05-06 20:21 34.37163 -77.72238 35034 ft 468 kts
2026-05-06 20:22 34.43539 -77.70612 35036 ft 468 kts
2026-05-06 20:22 34.49910 -77.68985 35023 ft 468 kts
2026-05-06 20:23 34.56262 -77.67040 35016 ft 477 kts
2026-05-06 20:23 34.62423 -77.63779 35033 ft 487 kts 17°
2026-05-06 20:24 34.68499 -77.60088 35020 ft 489 kts 17°
2026-05-06 20:24 34.74582 -77.56396 35013 ft 488 kts 17°
2026-05-06 20:25 34.80663 -77.52741 35014 ft 487 kts 16°
2026-05-06 20:25 34.86735 -77.49103 35030 ft 486 kts 16°
2026-05-06 20:26 34.92813 -77.45460 35021 ft 487 kts 16°
2026-05-06 20:26 34.98900 -77.41803 35023 ft 488 kts 16°
2026-05-06 20:27 35.05001 -77.38129 35022 ft 490 kts 16°
2026-05-06 20:27 35.11118 -77.34439 35015 ft 491 kts 16°
2026-05-06 20:28 35.17243 -77.30737 35006 ft 491 kts 16°
2026-05-06 20:28 35.23330 -77.27052 35001 ft 492 kts 16°
2026-05-06 20:29 35.29500 -77.23310 34999 ft 492 kts 16°
2026-05-06 20:29 35.35592 -77.19612 34991 ft 492 kts 17°
2026-05-06 20:30 35.44797 -77.14007 34993 ft 492 kts 17°
2026-05-06 20:31 35.50923 -77.10271 34989 ft 492 kts 17°
2026-05-06 20:31 35.57052 -77.06526 35005 ft 492 kts 16°
2026-05-06 20:32 35.63193 -77.02769 34998 ft 494 kts 16°
2026-05-06 20:32 35.69352 -76.98993 34994 ft 495 kts 16°
2026-05-06 20:33 35.75523 -76.95202 34984 ft 496 kts 16°
2026-05-06 20:33 35.81701 -76.91399 34998 ft 497 kts 16°
2026-05-06 20:34 35.87897 -76.87580 34980 ft 498 kts 16°
2026-05-06 20:34 35.94135 -76.83946 34976 ft 492 kts 13°
2026-05-06 20:35 36.00430 -76.80716 34979 ft 489 kts 12°
2026-05-06 20:35 36.06734 -76.77529 34988 ft 490 kts 12°
2026-05-06 20:36 36.13051 -76.74297 34980 ft 492 kts 12°
2026-05-06 20:36 36.19370 -76.71031 34983 ft 492 kts 13°
2026-05-06 20:37 36.25680 -76.67757 34998 ft 493 kts 13°
2026-05-06 20:37 36.31983 -76.64483 34982 ft 494 kts 13°
2026-05-06 20:38 36.38372 -76.61160 34976 ft 495 kts 13°
2026-05-06 20:38 36.44691 -76.57866 34972 ft 496 kts 13°
2026-05-06 20:39 36.51072 -76.54536 34963 ft 498 kts 13°
2026-05-06 20:39 36.57465 -76.51193 34960 ft 499 kts 13°
2026-05-06 20:40 36.63867 -76.47838 34969 ft 499 kts 13°
2026-05-06 20:40 36.70258 -76.44482 34974 ft 498 kts 13°
2026-05-06 20:41 36.76641 -76.41125 34958 ft 498 kts 13°
2026-05-06 20:41 36.83010 -76.37770 34957 ft 497 kts 13°
2026-05-06 20:42 36.89382 -76.34408 34964 ft 496 kts 13°
2026-05-06 20:42 36.95742 -76.31046 34979 ft 496 kts 13°
2026-05-06 20:43 37.02102 -76.27679 34973 ft 497 kts 13°
2026-05-06 20:43 37.08473 -76.24299 34918 ft 497 kts 13°
2026-05-06 20:44 37.14837 -76.20915 34947 ft 498 kts 13°
2026-05-06 20:44 37.21228 -76.17513 34917 ft 499 kts 13°
2026-05-06 20:45 37.27627 -76.14099 34886 ft 500 kts 13°
2026-05-06 20:45 37.34038 -76.10673 34898 ft 501 kts 13°
2026-05-06 20:46 37.40458 -76.07232 34905 ft 503 kts 13°
2026-05-06 20:46 37.46909 -76.03772 34896 ft 504 kts 13°
2026-05-06 20:47 37.53366 -76.00299 34892 ft 505 kts 13°
2026-05-06 20:47 37.59821 -75.96761 34894 ft 509 kts 16°
2026-05-06 20:48 37.65993 -75.92138 34907 ft 520 kts 25°
2026-05-06 20:48 37.72004 -75.87043 34904 ft 520 kts 25°
2026-05-06 20:49 37.78019 -75.81965 34898 ft 520 kts 25°
2026-05-06 20:49 37.84058 -75.76926 34900 ft 520 kts 24°
2026-05-06 20:50 37.90103 -75.71892 34908 ft 520 kts 24°
2026-05-06 20:50 37.96141 -75.66851 34912 ft 520 kts 24°
2026-05-06 20:51 38.02172 -75.61801 34944 ft 520 kts 24°
2026-05-06 20:51 38.08224 -75.56725 34924 ft 522 kts 24°
2026-05-06 20:52 38.14282 -75.51631 34913 ft 523 kts 24°
2026-05-06 20:52 38.20322 -75.46541 34904 ft 524 kts 24°
2026-05-06 20:53 38.26605 -75.42060 34896 ft 509 kts 12°
2026-05-06 20:53 38.33245 -75.39435 34892 ft 490 kts 360°
2026-05-06 20:54 38.39950 -75.38080 34897 ft 487 kts 358°
2026-05-06 20:54 38.46654 -75.36748 34909 ft 489 kts 358°
2026-05-06 20:55 38.53381 -75.35345 34907 ft 491 kts 358°
2026-05-06 20:55 38.60137 -75.33909 34906 ft 493 kts 358°
2026-05-06 20:56 38.66912 -75.32467 34907 ft 494 kts 358°
2026-05-06 20:56 38.73690 -75.30937 34885 ft 502 kts
2026-05-06 20:56 38.77077 -75.29671 34896 ft 513 kts
2026-05-06 20:57 38.80427 -75.27990 34885 ft 522 kts 14°
2026-05-06 20:57 38.86903 -75.23541 34915 ft 530 kts 19°
2026-05-06 20:58 38.93316 -75.18833 34884 ft 531 kts 19°
2026-05-06 20:58 38.99742 -75.14187 34862 ft 530 kts 18°
2026-05-06 20:59 39.06184 -75.09586 34861 ft 529 kts 18°
2026-05-06 20:59 39.12590 -75.05009 34861 ft 530 kts 18°
2026-05-06 21:00 39.19020 -75.00394 34871 ft 529 kts 18°
2026-05-06 21:00 39.25437 -74.95769 34881 ft 529 kts 19°
2026-05-06 21:01 39.31635 -74.90450 34890 ft 538 kts 25°
2026-05-06 21:01 39.37722 -74.84806 34881 ft 538 kts 25°
2026-05-06 21:02 39.43808 -74.79173 34856 ft 538 kts 25°
2026-05-06 21:02 39.49907 -74.73576 34868 ft 537 kts 24°
2026-05-06 21:03 39.55013 -74.68899 34861 ft 536 kts 24°
2026-05-06 21:03 39.61084 -74.63327 34848 ft 534 kts 24°
2026-05-06 21:04 39.67140 -74.57752 34859 ft 533 kts 24°
2026-05-06 21:04 39.73184 -74.52176 34856 ft 533 kts 24°
2026-05-06 21:05 39.79223 -74.46592 34851 ft 533 kts 24°
2026-05-06 21:05 39.85219 -74.41036 34892 ft 534 kts 24°
2026-05-06 21:06 39.91279 -74.35408 34820 ft 535 kts 25°
2026-05-06 21:06 39.97336 -74.29766 34839 ft 535 kts 25°
2026-05-06 21:07 40.03371 -74.24133 34845 ft 534 kts 25°
2026-05-06 21:07 40.09426 -74.18475 34848 ft 535 kts 25°
2026-05-06 21:08 40.15484 -74.12801 34846 ft 535 kts 25°
2026-05-06 21:08 40.21538 -74.07117 34848 ft 536 kts 25°
2026-05-06 21:09 40.27597 -74.01416 34844 ft 537 kts 25°
2026-05-06 21:09 40.33679 -73.95768 34830 ft 531 kts 21°
2026-05-06 21:09 40.36797 -73.93346 34833 ft 520 kts 15°
2026-05-06 21:10 40.40032 -73.91317 34836 ft 514 kts 12°
2026-05-06 21:10 40.46538 -73.87443 34862 ft 515 kts 12°
2026-05-06 21:11 40.53049 -73.83469 34842 ft 517 kts 13°
2026-05-06 21:11 40.59568 -73.79420 34834 ft 518 kts 13°
2026-05-06 21:12 40.66187 -73.76145 34824 ft 499 kts
2026-05-06 21:12 40.72878 -73.74222 34836 ft 492 kts 359°
2026-05-06 21:13 40.79515 -73.72383 34828 ft 494 kts 359°
2026-05-06 21:13 40.86163 -73.70482 34841 ft 496 kts 359°
2026-05-06 21:14 40.92862 -73.68529 34818 ft 497 kts 359°
2026-05-06 21:14 40.99614 -73.66552 34808 ft 497 kts 359°
2026-05-06 21:15 41.06235 -73.64614 34786 ft 497 kts 360°
2026-05-06 21:15 41.12960 -73.62642 34802 ft 497 kts 360°
2026-05-06 21:16 41.19714 -73.60658 34814 ft 497 kts 360°
2026-05-06 21:16 41.26471 -73.58671 34828 ft 498 kts 360°
2026-05-06 21:17 41.33222 -73.57311 34820 ft 486 kts 353°
2026-05-06 21:17 41.39944 -73.56460 34815 ft 485 kts 352°
2026-05-06 21:18 41.46681 -73.55616 34822 ft 488 kts 353°
2026-05-06 21:18 41.53441 -73.54725 34814 ft 489 kts 353°
2026-05-06 21:19 41.60212 -73.53797 34804 ft 490 kts 353°
2026-05-06 21:19 41.66986 -73.52868 34787 ft 489 kts 353°
2026-05-06 21:20 41.73750 -73.51935 34783 ft 489 kts 353°
2026-05-06 21:20 41.80525 -73.51007 34810 ft 489 kts 353°
2026-05-06 21:21 41.87308 -73.50083 34809 ft 491 kts 353°
2026-05-06 21:21 41.94100 -73.49151 34807 ft 491 kts 353°
2026-05-06 21:22 42.00913 -73.48208 34773 ft 492 kts 353°
2026-05-06 21:22 42.07733 -73.47271 34758 ft 493 kts 353°
2026-05-06 21:23 42.14552 -73.46327 34747 ft 493 kts 353°
2026-05-06 21:23 42.21372 -73.45373 34767 ft 492 kts 353°
2026-05-06 21:24 42.28199 -73.44426 34758 ft 495 kts 353°
2026-05-06 21:24 42.35008 -73.43480 34765 ft 496 kts 353°
2026-05-06 21:25 42.41877 -73.42519 34816 ft 497 kts 353°
2026-05-06 21:25 42.48774 -73.41554 34764 ft 499 kts 354°
2026-05-06 21:26 42.55672 -73.40589 34759 ft 499 kts 354°
2026-05-06 21:26 42.62580 -73.39615 34786 ft 499 kts 354°
2026-05-06 21:27 42.69492 -73.38642 34768 ft 499 kts 354°
2026-05-06 21:27 42.76409 -73.37662 34765 ft 500 kts 354°
2026-05-06 21:28 42.83326 -73.36685 34787 ft 501 kts 354°
2026-05-06 21:28 42.90262 -73.35702 34754 ft 501 kts 354°
2026-05-06 21:29 42.97206 -73.34718 34752 ft 501 kts 354°
2026-05-06 21:29 43.04045 -73.34654 34771 ft 486 kts 345°
2026-05-06 21:30 43.10779 -73.35330 34775 ft 485 kts 344°
2026-05-06 21:30 43.17526 -73.36009 34814 ft 486 kts 345°
2026-05-06 21:31 43.24287 -73.36635 34827 ft 488 kts 345°
2026-05-06 21:31 43.31033 -73.37238 34821 ft 489 kts 345°
2026-05-06 21:32 43.37833 -73.37847 34817 ft 490 kts 345°
2026-05-06 21:32 43.48009 -73.38765 34831 ft 488 kts 346°
2026-05-06 21:33 43.54794 -73.39379 34826 ft 488 kts 346°
2026-05-06 21:33 43.61564 -73.39994 34839 ft 487 kts 346°
2026-05-06 21:34 43.68324 -73.40610 34852 ft 487 kts 346°
2026-05-06 21:34 43.75145 -73.41294 33917 ft 499 kts 345°
2026-05-06 21:35 43.78596 -73.41695 33065 ft 498 kts 346°
2026-05-06 21:35 43.82051 -73.42104 32151 ft 498 kts 347°
2026-05-06 21:35 43.85501 -73.42508 31237 ft 498 kts 347°
2026-05-06 21:35 43.88959 -73.42911 30338 ft 499 kts 348°
2026-05-06 21:36 43.92398 -73.43305 29688 ft 493 kts 349°
2026-05-06 21:36 43.95795 -73.43689 29005 ft 488 kts 349°
2026-05-06 21:36 43.99173 -73.44070 28427 ft 483 kts 349°
2026-05-06 21:36 44.02470 -73.44445 27809 ft 480 kts 349°
2026-05-06 21:37 44.05828 -73.44829 27204 ft 477 kts 349°
2026-05-06 21:37 44.09076 -73.45202 26614 ft 473 kts 349°
2026-05-06 21:37 44.12336 -73.45576 26053 ft 468 kts 349°
2026-05-06 21:37 44.15563 -73.45946 25594 ft 462 kts 349°
2026-05-06 21:38 44.18790 -73.46317 25066 ft 458 kts 349°
2026-05-06 21:38 44.21961 -73.46683 24511 ft 455 kts 350°
2026-05-06 21:38 44.25065 -73.47043 23981 ft 453 kts 350°
2026-05-06 21:38 44.28197 -73.47405 23429 ft 450 kts 350°
2026-05-06 21:39 44.31309 -73.47766 22804 ft 448 kts 350°
2026-05-06 21:39 44.34414 -73.48126 22232 ft 446 kts 350°
2026-05-06 21:39 44.37493 -73.48483 21689 ft 443 kts 350°
2026-05-06 21:39 44.40548 -73.48836 21145 ft 439 kts 349°
2026-05-06 21:40 44.43585 -73.49187 20629 ft 439 kts 349°
2026-05-06 21:40 44.46653 -73.49543 20101 ft 447 kts 349°
2026-05-06 21:40 44.49789 -73.49916 19566 ft 456 kts 349°
2026-05-06 21:40 44.52982 -73.50294 19081 ft 463 kts 350°
2026-05-06 21:41 44.56175 -73.50664 18581 ft 451 kts 350°
2026-05-06 21:41 44.59249 -73.51012 17733 ft 439 kts 349°
2026-05-06 21:41 44.62278 -73.51364 17238 ft 433 kts 349°
2026-05-06 21:41 44.65261 -73.51715 16690 ft 428 kts 349°
2026-05-06 21:42 44.68211 -73.52062 16152 ft 423 kts 349°
2026-05-06 21:42 44.71122 -73.52404 15650 ft 418 kts 349°
2026-05-06 21:42 44.74008 -73.52743 15122 ft 414 kts 349°
2026-05-06 21:42 44.76862 -73.53081 14597 ft 410 kts 349°
2026-05-06 21:43 44.79689 -73.53416 14081 ft 407 kts 349°
2026-05-06 21:43 44.82501 -73.53749 13555 ft 403 kts 349°
2026-05-06 21:43 44.85283 -73.54078 12989 ft 400 kts 349°
2026-05-06 21:43 44.88042 -73.54396 12446 ft 396 kts 349°
2026-05-06 21:44 44.90773 -73.54694 11912 ft 391 kts 349°
2026-05-06 21:44 44.93466 -73.54985 11412 ft 386 kts 350°
2026-05-06 21:44 44.96137 -73.55275 10953 ft 381 kts 350°
2026-05-06 21:44 44.98728 -73.55556 10816 ft 367 kts 350°
2026-05-06 21:45 45.01231 -73.55830 10656 ft 354 kts 349°
2026-05-06 21:45 45.03643 -73.56095 10501 ft 342 kts 349°
2026-05-06 21:45 45.05974 -73.56352 10363 ft 330 kts 349°
2026-05-06 21:45 45.08220 -73.56599 10208 ft 318 kts 349°
2026-05-06 21:46 45.10386 -73.56838 10097 ft 306 kts 349°
2026-05-06 21:46 45.12476 -73.57067 9911 ft 298 kts 349°
2026-05-06 21:46 45.14507 -73.57293 9594 ft 295 kts 349°
2026-05-06 21:46 45.16540 -73.57521 9271 ft 291 kts 349°
2026-05-06 21:47 45.18549 -73.57745 8968 ft 288 kts 349°
2026-05-06 21:47 45.20530 -73.57966 8656 ft 284 kts 349°
2026-05-06 21:47 45.22489 -73.58184 8345 ft 281 kts 350°
2026-05-06 21:47 45.24423 -73.58398 8049 ft 277 kts 350°
2026-05-06 21:48 45.26334 -73.58610 7747 ft 274 kts 351°
2026-05-06 21:48 45.28220 -73.58822 7473 ft 270 kts 352°
2026-05-06 21:48 45.30080 -73.59027 7186 ft 266 kts 352°
2026-05-06 21:48 45.31916 -73.59228 6900 ft 263 kts 352°
2026-05-06 21:49 45.33727 -73.59426 6622 ft 259 kts 353°
2026-05-06 21:49 45.35511 -73.59623 6332 ft 256 kts 353°
2026-05-06 21:49 45.37274 -73.59817 6062 ft 252 kts 354°
2026-05-06 21:49 45.39000 -73.59863 5751 ft 244 kts
2026-05-06 21:50 45.40523 -73.58900 5518 ft 238 kts 32°
2026-05-06 21:50 45.41898 -73.57541 5305 ft 247 kts 32°
2026-05-06 21:50 45.43350 -73.56152 5052 ft 254 kts 32°
2026-05-06 21:50 45.44819 -73.54743 4777 ft 254 kts 32°
2026-05-06 21:51 45.46266 -73.53350 4497 ft 248 kts 32°
2026-05-06 21:51 45.47674 -73.51992 4325 ft 239 kts 32°
2026-05-06 21:51 45.49014 -73.50700 4201 ft 227 kts 32°
2026-05-06 21:51 45.50279 -73.49479 4093 ft 213 kts 32°
2026-05-06 21:52 45.51076 -73.48710 4031 ft 205 kts 32°
2026-05-06 21:52 45.52276 -73.47553 3986 ft 214 kts 32°
2026-05-06 21:52 45.53532 -73.46342 3984 ft 221 kts 32°
2026-05-06 21:52 45.54822 -73.45098 3823 ft 221 kts 32°
2026-05-06 21:53 45.56071 -73.43890 3815 ft 214 kts 32°
2026-05-06 21:53 45.57250 -73.42587 3814 ft 215 kts 38°
2026-05-06 21:53 45.58556 -73.41642 3773 ft 213 kts
2026-05-06 21:53 45.59949 -73.42197 3806 ft 213 kts 320°
2026-05-06 21:54 45.60763 -73.43932 3824 ft 214 kts 289°
2026-05-06 21:54 45.61234 -73.45949 3840 ft 216 kts 291°
2026-05-06 21:54 45.61750 -73.47982 3858 ft 217 kts 291°
2026-05-06 21:54 45.62253 -73.50000 3827 ft 214 kts 290°
2026-05-06 21:55 45.62735 -73.51988 3812 ft 210 kts 286°
2026-05-06 21:55 45.62748 -73.54053 3778 ft 214 kts 251°
2026-05-06 21:55 45.61921 -73.55829 3755 ft 221 kts 227°
2026-05-06 21:55 45.60740 -73.57365 3404 ft 234 kts 223°
2026-05-06 21:56 45.59526 -73.58894 3113 ft 229 kts 224°
2026-05-06 21:56 45.58384 -73.60381 2900 ft 220 kts 224°
2026-05-06 21:56 45.57270 -73.61847 2600 ft 215 kts 225°
2026-05-06 21:56 45.56185 -73.63272 2324 ft 205 kts 224°
2026-05-06 21:57 45.55186 -73.64586 2039 ft 187 kts 224°
2026-05-06 21:57 45.54265 -73.65798 1810 ft 176 kts 223°
2026-05-06 21:57 45.53358 -73.66991 1572 ft 177 kts 223°
2026-05-06 21:57 45.52485 -73.68136 1306 ft 160 kts 223°
2026-05-06 21:58 45.51714 -73.69126 1026 ft 139 kts 222°
2026-05-06 21:58 45.51031 -73.70027 818 ft 134 kts 222°
2026-05-06 21:58 45.50359 -73.70920 696 ft 134 kts 221°
2026-05-06 21:58 45.49673 -73.71827 571 ft 136 kts 221°
2026-05-06 21:59 45.48982 -73.72745 375 ft 136 kts 221°
2026-05-06 21:59 45.48292 -73.73648 165 ft 133 kts 220°
2026-05-06 21:59 45.47632 -73.74502 112 ft 117 kts 224°
2026-05-06 21:59 45.47122 -73.75171 113 ft 82 kts 223°
2026-05-06 22:00 45.46789 -73.75572 111 ft 40 kts 202°
2026-05-06 22:00 45.46528 -73.75656 109 ft 35 kts 192°
2026-05-06 22:00 45.46392 -73.75701 108 ft 5 kts 193°
2026-05-06 22:00 45.46359 -73.75712 108 ft 5 kts 192°
2026-05-06 22:01 45.46326 -73.75720 108 ft 5 kts 188°
2026-05-06 22:01 45.46293 -73.75726 109 ft 5 kts 186°
2026-05-06 22:01 45.46255 -73.75728 108 ft 7 kts 180°
2026-05-06 22:01 45.46202 -73.75726 107 ft 8 kts 177°
2026-05-06 22:02 45.46145 -73.75751 106 ft 9 kts 227°
2026-05-06 22:02 45.46128 -73.75840 106 ft 10 kts 264°
2026-05-06 22:02 45.46112 -73.75929 106 ft 10 kts 228°
2026-05-06 22:02 45.46065 -73.75996 109 ft 10 kts 233°
2026-05-06 22:03 45.46013 -73.76052 108 ft 10 kts 195°
2026-05-06 22:03 45.45946 -73.76055 109 ft 10 kts 177°
2026-05-06 22:03 45.45877 -73.76048 109 ft 10 kts 173°
2026-05-06 22:03 45.45808 -73.76030 109 ft 10 kts 168°
2026-05-06 22:04 45.45748 -73.75982 109 ft 10 kts 134°
2026-05-06 22:04 45.45703 -73.75907 108 ft 10 kts 128°
2026-05-06 22:04 45.45660 -73.75828 108 ft 10 kts 131°
2026-05-06 22:04 45.45597 -73.75787 109 ft 10 kts 166°
2026-05-06 22:05 45.45529 -73.75791 109 ft 10 kts 208°
2026-05-06 22:05 45.45483 -73.75848 109 ft 6 kts 226°
2026-05-06 22:05 45.45471 -73.75866 108 ft 0 kts 227°
2026-05-06 22:05 45.45470 -73.75868 108 ft 0 kts 226°
2026-05-06 22:08 45.45470 -73.75867 108 ft 0 kts 228°